This is the latest recevied weather packets stored in our database for station/object KD7CIH. If no packets are shown the sender has not sent any weather packets the latest 10 day(s).
| Time | Temp. | Humidity | Pressure | Rain* | Wind** | Luminosity | Snow |
|---|---|---|---|---|---|---|---|
| 1787570128 | 15.56° C | 62% | 1020.2 hPa | 0 mm | - | - | - |
| 1787569700 | 16.11° C | 63% | 1020.1 hPa | 0 mm | - | - | - |
| 1787569399 | 16.11° C | 61% | 1020.2 hPa | 0 mm | - | - | - |
| 1787569100 | 16.11° C | 61% | 1020.4 hPa | 0 mm | - | - | - |
| 1787568801 | 16.11° C | 61% | 1020.4 hPa | 0 mm | - | - | - |
| 1787568499 | 16.11° C | 62% | 1020.4 hPa | 0 mm | - | - | - |
| 1787568199 | 15.56° C | 64% | 1020.2 hPa | 0 mm | - | - | - |
| 1787567899 | 15.56° C | 65% | 1020.1 hPa | 0 mm | - | - | - |
| 1787567601 | 15.56° C | 65% | 1020.1 hPa | 0 mm | - | - | - |
| 1787567422 | 15.56° C | 65% | 1020.1 hPa | 0 mm | - | - | - |
| 1787566995 | 15.56° C | 64% | 1020 hPa | 0 mm | - | - | - |
| 1787566824 | 15.56° C | 67% | 1020 hPa | 0 mm | - | - | - |
| 1787566395 | 15° C | 68% | 1019.8 hPa | 0 mm | - | - | - |
| 1787566095 | 15° C | 70% | 1020 hPa | 0 mm | - | - | - |
| 1787565795 | 15° C | 71% | 1020.1 hPa | 0 mm | - | - | - |
| 1787565496 | 15° C | 71% | 1020.2 hPa | 0 mm | - | - | - |
| 1787565195 | 15° C | 71% | 1020.5 hPa | 0 mm | - | - | - |
| 1787564896 | 15° C | 72% | 1020.5 hPa | 0 mm | - | - | - |
| 1787564590 | 15° C | 73% | 1020.5 hPa | 0 mm | - | - | - |
| 1787564416 | 15° C | 73% | 1020.4 hPa | 0 mm | - | - | - |
| 1787563989 | 15° C | 72% | 1020.4 hPa | 0 mm | - | - | - |
| 1787563689 | 15° C | 71% | 1020.5 hPa | 0 mm | - | - | - |
| 1787563393 | 15° C | 70% | 1020.9 hPa | 0 mm | - | - | - |
| 1787563090 | 15.56° C | 68% | 1021.2 hPa | 0 mm | - | - | - |
| 1787562789 | 15.56° C | 67% | 1021.9 hPa | 0 mm | - | - | - |
* Rain latest hour (hover to see other rain measurements)
** Current wind speed in m/s (hover to see current wind gust speed)